TimeEST,TemperatureF,Dew PointF,Humidity,Sea Level PressureIn,VisibilityMPH,Wind Direction,Wind SpeedMPH,Gust SpeedMPH,PrecipitationIn,Events,Conditions,WindDirDegrees,DateUTC
12:26 AM,23.7,21.9,93,30.19,-9999.0,Calm,Calm,-,0.01,,Unknown,0,2012-12-14 05:26:00
1:25 AM,27.7,22.1,80,30.16,-9999.0,Variable,4.6,-,N/A,,Unknown,0,2012-12-14 06:25:00
2:25 AM,28.0,22.6,80,30.15,-9999.0,Variable,4.6,-,N/A,,Unknown,0,2012-12-14 07:25:00
3:25 AM,29.1,23.0,78,30.12,-9999.0,Variable,4.6,15.0,N/A,,Unknown,0,2012-12-14 08:25:00
4:25 AM,29.8,23.5,77,30.10,-9999.0,Variable,6.9,15.0,N/A,,Unknown,0,2012-12-14 09:25:00
5:25 AM,29.3,24.3,81,30.08,-9999.0,Variable,4.6,13.8,N/A,,Unknown,0,2012-12-14 10:25:00
6:25 AM,28.2,24.3,85,30.05,-9999.0,Variable,6.9,12.7,N/A,,Unknown,0,2012-12-14 11:25:00
7:25 AM,30.0,21.9,72,30.03,-9999.0,South,11.5,18.4,N/A,,Unknown,190,2012-12-14 12:25:00
8:26 AM,30.7,22.3,71,30.02,-9999.0,SSW,9.2,16.1,N/A,,Unknown,200,2012-12-14 13:26:00
9:25 AM,31.6,23.0,70,30.00,-9999.0,SSW,8.1,18.4,N/A,,Unknown,210,2012-12-14 14:25:00
10:25 AM,34.3,24.3,67,29.98,-9999.0,SSW,11.5,23.0,N/A,,Unknown,210,2012-12-14 15:25:00
11:25 AM,33.6,24.3,69,29.95,-9999.0,SSW,9.2,21.9,N/A,,Unknown,210,2012-12-14 16:25:00
12:26 PM,33.4,25.0,71,29.93,-9999.0,Variable,6.9,16.1,N/A,,Unknown,0,2012-12-14 17:26:00
1:25 PM,32.5,26.8,79,29.92,-9999.0,SSW,9.2,17.3,N/A,,Unknown,210,2012-12-14 18:25:00
2:25 PM,32.0,28.2,86,29.93,-9999.0,Variable,3.5,12.7,N/A,,Unknown,0,2012-12-14 19:25:00
3:25 PM,32.2,28.0,85,29.94,-9999.0,Variable,3.5,-,N/A,,Unknown,0,2012-12-14 20:25:00
4:25 PM,31.6,27.9,86,29.96,-9999.0,Variable,4.6,-,N/A,,Unknown,0,2012-12-14 21:25:00
5:25 PM,31.3,27.5,86,29.98,-9999.0,Variable,4.6,-,N/A,,Unknown,0,2012-12-14 22:25:00
6:25 PM,30.7,26.8,85,30.01,-9999.0,Variable,4.6,13.8,N/A,,Unknown,0,2012-12-14 23:25:00
7:25 PM,26.8,19.0,73,30.05,-9999.0,Variable,4.6,-,0.00,,Unknown,0,2012-12-15 00:25:00
8:25 PM,23.0,17.4,79,30.08,-9999.0,Calm,Calm,-,N/A,,Unknown,0,2012-12-15 01:25:00
9:25 PM,19.0,14.4,82,30.11,-9999.0,Calm,Calm,-,N/A,,Unknown,0,2012-12-15 02:25:00
10:25 PM,17.1,12.9,84,30.13,-9999.0,Calm,Calm,-,0.00,,Unknown,0,2012-12-15 03:25:00
11:25 PM,13.6,10.2,86,30.16,-9999.0,Variable,2.3,-,0.01,,Unknown,0,2012-12-15 04:25:00